KD5OH Weather Reports


time (UTC)temp
C
wind
direction
speed
KPH
gust
KPH
rain 1hr
cm
rain 24hr
cm
rain mn
cm
humidity
%
barometer
mb
20260831001637 36 305 0.0 1.6 0.00 0.00 0.00 16 1014.7
20260831000156 36 279 0.0 4.8 0.00 0.00 0.00 18 1014.7
20260830234626 37 282 0.0 3.2 0.00 0.00 0.00 16 1014.7
20260830233121 36 213 0.0 1.6 0.00 0.00 0.00 16 1014.9
20260830231634 36 290 0.0 6.4 0.00 0.00 0.00 17 1015.1
20260830230125 36 118 4.8 12.9 0.00 0.00 0.00 16 1015.1
20260830224701 36 305 3.2 11.3 0.00 0.00 0.00 16 1015.4
20260830223153 36 239 1.6 6.4 0.00 0.00 0.00 16 1015.5
20260830221627 36 360 8.0 12.9 0.00 0.00 0.00 17 1015.8
20260830220140 36 241 8.0 14.5 0.00 0.00 0.00 17 1015.8
20260830214653 36 249 6.4 12.9 0.00 0.00 0.00 18 1015.8
20260830213127 35 233 3.2 12.9 0.00 0.00 0.00 18 1016.0
20260830211637 35 304 3.2 11.3 0.00 0.00 0.00 19 1016.2
20260830210155 35 298 4.8 16.1 0.00 0.00 0.00 20 1016.4
20260830204626 35 317 6.4 14.5 0.00 0.00 0.00 20 1016.7
20260830203138 35 241 3.2 16.1 0.00 0.00 0.00 20 1016.9
20260830201633 35 306 9.7 16.1 0.00 0.00 0.00 20 1017.4
20260830200124 35 317 4.8 12.9 0.00 0.00 0.00 20 1017.7
20260830194620 35 304 6.4 11.3 0.00 0.00 0.00 21 1017.9
20260830193132 35 277 1.6 16.1 0.00 0.00 0.00 21 1018.2
20260830191627 33 260 1.6 9.7 0.00 0.00 0.00 22 1018.2
20260830190138 33 258 1.6 11.3 0.00 0.00 0.00 22 1018.6
20260830184630 33 49 1.6 6.4 0.00 0.00 0.00 22 1018.9
20260830183125 33 257 1.6 8.0 0.00 0.00 0.00 23 1019.1
20260830181636 33 227 1.6 11.3 0.00 0.00 0.00 24 1019.5
20260830180132 32 250 1.6 8.0 0.00 0.00 0.00 23 1019.8
20260830174645 32 156 1.6 8.0 0.00 0.00 0.00 25 1020.0
20260830173136 31 163 3.2 8.0 0.00 0.00 0.00 26 1020.1
20260830171632 31 236 4.8 9.7 0.00 0.00 0.00 25 1020.1
20260830170125 31 28 1.6 6.4 0.00 0.00 0.00 26 1020.2
20260830164639 31 246 3.2 8.0 0.00 0.00 0.00 26 1020.3
20260830163131 31 307 1.6 4.8 0.00 0.00 0.00 28 1020.3
20260830161626 30 248 1.6 4.8 0.00 0.00 0.00 28 1020.3
20260830160139 30 250 1.6 8.0 0.00 0.00 0.00 30 1020.3
20260830154650 29 84 0.0 1.6 0.00 0.00 0.00 32 1020.4
20260830153124 28 352 0.0 1.6 0.00 0.00 0.00 32 1020.5
20260830151636 27 301 0.0 1.6 0.00 0.00 0.00 35 1020.6
20260830150131 26 277 1.6 4.8 0.00 0.00 0.00 37 1020.6
20260830144623 26 259 1.6 4.8 0.00 0.00 0.00 38 1020.6
20260830143201 25 241 0.0 1.6 0.00 0.00 0.00 42 1020.4
20260830141630 24 202 0.0 0.0 0.00 0.00 0.00 44 1020.2
20260830134657 22 137 0.0 0.0 0.00 0.00 0.00 49 1019.8
20260830133128 20 106 0.0 1.6 0.00 0.00 0.00 55 1019.9
20260830131623 20 131 0.0 1.6 0.00 0.00 0.00 56 1019.8
20260830130135 20 123 0.0 0.0 0.00 0.00 0.00 56 1019.7
20260830124626 20 173 0.0 0.0 0.00 0.00 0.00 54 1019.4
20260830123141 20 137 0.0 0.0 0.00 0.00 0.00 53 1019.2
20260830121632 20 134 0.0 0.0 0.00 0.00 0.00 51 1019.0
20260830120127 21 164 0.0 0.0 0.00 0.00 0.00 48 1018.9
20260830114637 22 317 0.0 0.0 0.00 0.00 0.00 42 1019.0
20260830113130 22 338 0.0 1.6 0.00 0.00 0.00 42 1019.0
20260830111620 22 304 0.0 1.6 0.00 0.00 0.00 40 1019.0
20260830110133 22 315 0.0 0.0 0.00 0.00 0.00 40 1019.0
20260830104630 22 267 0.0 1.6 0.00 0.00 0.00 40 1018.9
20260830103123 24 312 0.0 6.4 0.00 0.00 0.00 36 1018.9
20260830101639 25 343 0.0 3.2 0.00 0.00 0.00 35 1018.9
20260830100134 26 352 0.0 1.6 0.00 0.00 0.00 34 1018.8
20260830093121 27 73 0.0 9.7 0.00 0.00 0.00 32 1018.6
20260830091633 27 123 4.8 9.7 0.00 0.00 0.00 32 1018.4
20260830090130 27 148 6.4 12.9 0.00 0.00 0.00 31 1018.2
20260830084621 28 123 8.0 14.5 0.00 0.00 0.00 31 1018.2
20260830083137 28 130 12.9 22.5 0.00 0.00 0.00 29 1018.2
20260830081628 28 154 11.3 22.5 0.00 0.00 0.00 29 1018.2
20260830080125 28 157 9.7 20.9 0.00 0.00 0.00 29 1018.1
20260830074636 28 154 17.7 25.7 0.00 0.00 0.00 29 1018.1
20260830073133 28 149 6.4 19.3 0.00 0.00 0.00 29 1018.1
20260830071625 28 131 9.7 17.7 0.00 0.00 0.00 28 1018.2
20260830070137 28 150 8.0 16.1 0.00 0.00 0.00 29 1018.1
20260830064631 28 130 9.7 16.1 0.00 0.00 0.00 28 1018.2
20260830063123 28 116 11.3 17.7 0.00 0.00 0.00 28 1018.5
20260830061639 29 138 11.3 22.5 0.00 0.00 0.00 28 1018.4
20260830060130 28 144 12.9 20.9 0.00 0.00 0.00 27 1018.5
20260830054621 28 161 8.0 17.7 0.00 0.00 0.00 28 1018.6
20260830053138 28 131 8.0 14.5 0.00 0.00 0.00 29 1018.8
20260830051629 28 139 6.4 12.9 0.00 0.00 0.00 28 1019.0
20260830050202 28 156 9.7 19.3 0.00 0.00 0.00 29 1018.8
20260830044633 28 151 3.2 9.7 0.00 0.00 0.00 30 1018.6
20260830043128 28 154 4.8 9.7 0.00 0.00 0.00 30 1018.5
20260830041621 30 148 4.8 11.3 0.00 0.00 0.00 28 1018.5
20260830040133 30 127 6.4 11.3 0.00 0.00 0.00 27 1018.4
20260830034649 30 120 3.2 9.7 0.00 0.00 0.00 28 1018.2
20260830033137 30 157 8.0 12.9 0.00 0.00 0.00 27 1017.9
20260830031652 29 108 4.8 8.0 0.00 0.00 0.00 29 1017.6
20260830030124 28 155 3.2 4.8 0.00 0.00 0.00 34 1017.3
20260830024637 29 137 1.6 4.8 0.00 0.00 0.00 31 1017.0
20260830023130 30 140 0.0 4.8 0.00 0.00 0.00 28 1016.8
20260830021622 30 106 1.6 4.8 0.00 0.00 0.00 27 1016.7
20260830020138 31 137 1.6 4.8 0.00 0.00 0.00 26 1016.6
20260830014629 31 141 0.0 3.2 0.00 0.00 0.00 26 1016.5
20260830013124 32 130 0.0 1.6 0.00 0.00 0.00 25 1016.4
20260830011637 33 146 0.0 3.2 0.00 0.00 0.00 24 1016.4
20260830010129 35 153 0.0 3.2 0.00 0.00 0.00 21 1016.5
20260830004626 35 164 3.2 8.0 0.00 0.00 0.00 19 1016.4
20260830003139 35 179 3.2 9.7 0.00 0.00 0.00 20 1016.5